Coolidge Muni, Coolidge, AZ

6:41 PM MST on November 19, 2019 (GMT -0700)
Coolidge Muni, Coolidge

Weather History for KP08 - September, 2019

Change the Weather History Date:

Thursday, September 19, 2019

  Actual Average (KCGZ) Record (KCGZ)
Temperature  
Mean Temperature 86 °F -  
Max Temperature 100 °F 94 °F 104 °F (1998)
Min Temperature 73 °F 67 °F 60 °F (2006)
Cooling Degree Days 22    
Growing Degree Days 36 (Base 50)    
Moisture  
Dew Point 43 °F    
Average Humidity 24    
Maximum Humidity 38    
Minimum Humidity 11    
Precipitation  
Precipitation 0.00 in - - ()
Sea Level Pressure  
Sea Level Pressure 29.79 in    
Wind  
Wind Speed 7 mph ()    
Max Wind Speed 18 mph    
Max Gust Speed 28 mph    
Visibility 9.9 miles    
Events      
Averages and records for this station are not official NWS values.
T = Trace of Precipitation, MM = Missing Value Source: Averaged Metar Reports

Daily Weather History Graph

Daily Weather History Graph

Search for Another Location

Airport or City:

Astronomy

Sep. 19, 2019 Rise Set
Actual Time 6:11 AM MST 6:26 PM MST
Civil Twilight 5:47 AM MST 6:51 PM MST
Nautical Twilight 5:18 AM MST 7:20 PM MST
Astronomical Twilight 4:49 AM MST 7:49 PM MST
Moon 9:54 PM MST (9/19) 11:03 AM MST (9/19)
Length of Visible Light 13h 04m
Length of Day
12h 14m
Waning Gibbous, 73% of the Moon is Illuminated
Sep 19
Waning Gibbous
Sep 21
Last Quarter
Sep 28
New
Oct 5
First Quarter
Oct 13
Full

Hourly Weather History & Observations

Time (MST) Temp. Dew Point Humidity Pressure Visibility Wind Dir Wind Speed Gust Speed Precip Events Conditions
12:15 AM 82.4 °F 48.2 °F 30% 29.83 in 10.0 mi South 6.9 mph - N/A   Clear
12:35 AM 80.6 °F 48.2 °F 32% 29.84 in 10.0 mi ESE 6.9 mph - N/A   Clear
12:55 AM 80.6 °F 46.4 °F 30% 29.84 in 10.0 mi SSE 6.9 mph - N/A   Clear
1:10 AM 78.8 °F 46.4 °F 32% 29.84 in 10.0 mi SSE 5.8 mph - N/A   Clear
1:30 AM 78.8 °F 46.4 °F 32% 29.84 in 10.0 mi SSE 8.1 mph - N/A   Clear
1:55 AM 77.0 °F 48.2 °F 36% 29.84 in 10.0 mi SE 5.8 mph - N/A   Clear
2:10 AM 77.0 °F 48.2 °F 36% 29.84 in 10.0 mi ESE 4.6 mph - N/A   Clear
2:35 AM 75.2 °F 46.4 °F 36% 29.84 in 10.0 mi ESE 5.8 mph - N/A   Clear
2:55 AM 75.2 °F 46.4 °F 36% 29.83 in 10.0 mi SE 5.8 mph - N/A   Clear
3:15 AM 75.2 °F 46.4 °F 36% 29.83 in 10.0 mi ESE 6.9 mph - N/A   Clear
3:35 AM 75.2 °F 44.6 °F 34% 29.83 in 10.0 mi SE 6.9 mph - N/A   Clear
3:55 AM 75.2 °F 46.4 °F 36% 29.83 in 10.0 mi ESE 8.1 mph - N/A   Partly Cloudy
4:15 AM 75.2 °F 44.6 °F 34% 29.83 in 10.0 mi ESE 6.9 mph - N/A   Partly Cloudy
4:55 AM 77.0 °F 44.6 °F 32% 29.83 in 10.0 mi SSE 8.1 mph - N/A   Clear
5:15 AM 75.2 °F 46.4 °F 36% 29.83 in 9.0 mi ESE 4.6 mph - N/A   Scattered Clouds
5:35 AM 73.4 °F 46.4 °F 38% 29.83 in 8.0 mi NNW 5.8 mph - N/A   Scattered Clouds
5:55 AM 75.2 °F 46.4 °F 36% 29.84 in 10.0 mi ENE 3.5 mph - N/A   Scattered Clouds
6:15 AM 77.0 °F 46.4 °F 34% 29.84 in 10.0 mi ESE 4.6 mph - N/A   Partly Cloudy
6:35 AM 75.2 °F 48.2 °F 38% 29.84 in 10.0 mi East 5.8 mph - N/A   Scattered Clouds
6:55 AM 78.8 °F 48.2 °F 34% 29.85 in 10.0 mi ESE 4.6 mph - N/A   Scattered Clouds
7:15 AM 78.8 °F 48.2 °F 34% 29.86 in 10.0 mi Calm Calm - N/A   Partly Cloudy
7:35 AM 78.8 °F 48.2 °F 34% 29.86 in 9.0 mi Calm Calm - N/A   Clear
7:55 AM 78.8 °F 48.2 °F 34% 29.87 in 9.0 mi Calm Calm - N/A   Clear
8:15 AM 78.8 °F 48.2 °F 34% 29.87 in 10.0 mi Calm Calm - N/A   Clear
8:35 AM 84.2 °F 48.2 °F 29% 29.87 in 9.0 mi Calm Calm - N/A   Clear
8:55 AM 87.8 °F 46.4 °F 24% 29.87 in 10.0 mi South 4.6 mph - N/A   Clear
9:15 AM 89.6 °F 44.6 °F 21% 29.87 in 10.0 mi SSW 5.8 mph - N/A   Clear
9:35 AM 91.4 °F 44.6 °F 20% 29.86 in 10.0 mi SSW 5.8 mph 12.7 mph N/A   Clear
9:55 AM 91.4 °F 44.6 °F 20% 29.86 in 10.0 mi SSW 10.4 mph - N/A   Clear
10:15 AM 93.2 °F 44.6 °F 19% 29.85 in 10.0 mi SSW 10.4 mph - N/A   Clear
10:35 AM 93.2 °F 46.4 °F 20% 29.85 in 10.0 mi SSW 10.4 mph 17.3 mph N/A   Clear
10:55 AM 93.2 °F 46.4 °F 20% 29.84 in 10.0 mi WSW 8.1 mph - N/A   Clear
11:15 AM 95.0 °F 44.6 °F 18% 29.83 in 10.0 mi SSW 8.1 mph 18.4 mph N/A   Clear
11:35 AM 95.0 °F 46.4 °F 19% 29.82 in 10.0 mi SSW 9.2 mph 16.1 mph N/A   Clear
11:55 AM 95.0 °F 44.6 °F 18% 29.81 in 10.0 mi SW 16.1 mph 23.0 mph N/A   Clear
12:15 PM 96.8 °F 44.6 °F 17% 29.80 in 10.0 mi SSW 16.1 mph - N/A   Clear
12:35 PM 96.8 °F 46.4 °F 18% 29.79 in 10.0 mi SW 12.7 mph 20.7 mph N/A   Clear
12:55 PM 96.8 °F 44.6 °F 17% 29.78 in 10.0 mi South 18.4 mph 26.5 mph N/A   Clear
1:15 PM 98.6 °F 44.6 °F 16% 29.77 in 10.0 mi SSW 13.8 mph 25.3 mph N/A   Clear
1:50 PM 98.6 °F 44.6 °F 16% 29.75 in 10.0 mi South 13.8 mph 20.7 mph N/A   Clear
2:15 PM 98.6 °F 41.0 °F 14% 29.75 in 10.0 mi SW 16.1 mph 27.6 mph N/A   Clear
2:35 PM 100.4 °F 41.0 °F 13% 29.74 in 10.0 mi SSW 16.1 mph 26.5 mph N/A   Clear
2:55 PM 100.4 °F 39.2 °F 12% 29.73 in 10.0 mi SW 17.3 mph 25.3 mph N/A   Clear
3:15 PM 98.6 °F 39.2 °F 13% 29.73 in 10.0 mi SW 12.7 mph 24.2 mph N/A   Clear
3:35 PM 98.6 °F 37.4 °F 12% 29.72 in 10.0 mi SW 16.1 mph 23.0 mph N/A   Clear
3:50 PM 98.6 °F 35.6 °F 11% 29.72 in 10.0 mi SW 15.0 mph 27.6 mph N/A   Clear
4:10 PM 98.6 °F 35.6 °F 11% 29.71 in 10.0 mi SW 15.0 mph 26.5 mph N/A   Clear
4:35 PM 98.6 °F 35.6 °F 11% 29.71 in 10.0 mi SW 13.8 mph - N/A   Clear
4:55 PM 98.6 °F 35.6 °F 11% 29.71 in 10.0 mi SW 13.8 mph 23.0 mph N/A   Clear
5:15 PM 98.6 °F 37.4 °F 12% 29.70 in 10.0 mi SW 18.4 mph - N/A   Clear
5:35 PM 96.8 °F 37.4 °F 13% 29.70 in 10.0 mi SW 15.0 mph - N/A   Clear
5:55 PM 95.0 °F 39.2 °F 14% 29.70 in 10.0 mi SW 11.5 mph - N/A   Clear
6:15 PM 93.2 °F 39.2 °F 15% 29.70 in 10.0 mi SW 6.9 mph - N/A   Clear
6:35 PM 91.4 °F 39.2 °F 16% 29.70 in 10.0 mi SSW 6.9 mph - N/A   Clear
6:55 PM 89.6 °F 41.0 °F 18% 29.70 in 10.0 mi SW 8.1 mph - N/A   Clear
7:15 PM 89.6 °F 41.0 °F 18% 29.71 in 10.0 mi SW 8.1 mph - N/A   Clear
7:35 PM 87.8 °F 41.0 °F 19% 29.71 in 10.0 mi SSW 8.1 mph - N/A   Clear
7:50 PM 86.0 °F 41.0 °F 20% 29.72 in 10.0 mi South 9.2 mph - N/A   Clear
8:15 PM 86.0 °F 41.0 °F 20% 29.72 in 10.0 mi South 9.2 mph - N/A   Clear
8:35 PM 86.0 °F 41.0 °F 20% 29.73 in 10.0 mi SSW 8.1 mph - N/A   Clear
8:55 PM 82.4 °F 41.0 °F 23% 29.73 in 10.0 mi SW 6.9 mph - N/A   Clear
9:15 PM 84.2 °F 39.2 °F 20% 29.73 in 10.0 mi SW 10.4 mph - N/A   Clear
9:35 PM 82.4 °F 39.2 °F 21% 29.74 in 10.0 mi SSW 9.2 mph - N/A   Clear
9:55 PM 82.4 °F 39.2 °F 21% 29.74 in 10.0 mi SW 10.4 mph - N/A   Clear
10:15 PM 82.4 °F 39.2 °F 21% 29.75 in 10.0 mi WSW 11.5 mph - N/A   Clear
10:35 PM 80.6 °F 41.0 °F 24% 29.75 in 10.0 mi SSW 6.9 mph - N/A   Clear
10:55 PM 78.8 °F 41.0 °F 26% 29.76 in 10.0 mi SSW 9.2 mph - N/A   Clear
11:15 PM 78.8 °F 42.8 °F 28% 29.76 in 10.0 mi SSW 6.9 mph - N/A   Clear
11:35 PM 77.0 °F 42.8 °F 29% 29.77 in 10.0 mi SE 8.1 mph - N/A   Clear
11:55 PM 78.8 °F 44.6 °F 30% 29.78 in 10.0 mi SSW 5.8 mph - N/A   Clear